Weather History for VANP - October, 2012

Change the Weather History Date:

Friday, October 5, 2012

  Actual Average Record
Temperature  
Mean Temperature 83 °F -  
Max Temperature 94 °F 90 °F - ()
Min Temperature 72 °F 67 °F - ()
Cooling Degree Days 18    
Growing Degree Days 33 (Base 50)    
Moisture  
Dew Point 74 °F    
Average Humidity 74    
Maximum Humidity 94    
Minimum Humidity 45    
Precipitation  
Precipitation 0.00 in 0.08 in - ()
Sea Level Pressure  
Sea Level Pressure 29.79 in    
Wind  
Wind Speed 2 mph ()    
Max Wind Speed 5 mph    
Max Gust Speed -    
Visibility 2.3 miles    
Events      
T = Trace of Precipitation, MM = Missing Value Source: Averaged Metar Reports

Daily Weather History Graph

Daily Weather History Graph

Search for Another Location

Airport or City:

Trip Planner

Search our weather history database for the weather conditions in past years. The results will help you decide how hot, cold, wet, or windy it might be!

Date:

Astronomy

Oct. 05, 2012 Rise Set
Actual Time 6:06 AM IST 5:57 PM IST
Civil Twilight 5:43 AM IST 6:20 PM IST
Nautical Twilight 5:18 AM IST 6:45 PM IST
Astronomical Twilight 4:52 AM IST 7:11 PM IST
Moon 9:32 PM IST (10/5) 10:16 AM IST (10/5)
Length of Visible Light 12h 36m
Length of Day
11h 51m
Waning Gibbous, 77% of the Moon is Illuminated
Oct 5
Waning Gibbous
Oct 8
Last Quarter
Oct 15
New
Oct 22
First Quarter
Oct 30
Full

Hourly Weather History & Observations

Time (IST) Temp. Heat Index Dew Point Humidity Pressure Visibility Wind Dir Wind Speed Gust Speed Precip Events Conditions
12:10 AM 78.8 °F - 71.6 °F 78% 29.77 in 1.9 mi NW 2.3 mph - N/A   Haze
1:10 AM 75.2 °F - 71.6 °F 89% 29.77 in 1.9 mi SSE 3.5 mph - N/A   Haze
3:10 AM 73.4 °F - 69.8 °F 88% 29.77 in 1.9 mi North 2.3 mph - N/A   Haze
4:10 AM 73.4 °F - 69.8 °F 88% 29.77 in 1.9 mi NW 2.3 mph - N/A   Haze
5:10 AM 73.4 °F - 69.8 °F 88% 29.77 in 1.9 mi WNW 4.6 mph - N/A   Haze
5:30 AM 72 °F - 71 °F 94% 29.75 in 1 mi NW 2.3 mph - -   Haze
6:10 AM 73.4 °F - 69.8 °F 88% 29.77 in 1.9 mi NW 2.3 mph - N/A   Haze
7:10 AM 77.0 °F - 71.6 °F 83% 29.80 in 1.9 mi NW 2.3 mph - N/A   Haze
8:10 AM 84.2 °F 92.3 °F 75.2 °F 74% 29.83 in 1.9 mi Calm Calm - N/A   Haze
8:30 AM 80 °F - 75 °F 81% 29.79 in 2 mi Calm Calm - -   Haze
9:10 AM 87.8 °F 97.6 °F 75.2 °F 66% 29.83 in 2.5 mi NNW 2.3 mph - N/A   Haze
11:10 AM 93.2 °F 110.2 °F 78.8 °F 63% 29.83 in 3.7 mi NE 1.2 mph - N/A   Scattered Clouds
11:30 AM 90 °F - 73 °F 49% 29.77 in 2 mi NNW 4.6 mph - -   Scattered Clouds
12:10 PM 95.0 °F 109.7 °F 77.0 °F 56% 29.80 in - North - - N/A   Partly Cloudy
1:10 PM 96.8 °F 109.6 °F 75.2 °F 50% 29.77 in 3.7 mi SE 2.3 mph - N/A   Partly Cloudy
2:10 PM 96.8 °F 112.2 °F 77.0 °F 53% 29.74 in 3.7 mi East 2.3 mph - N/A   Partly Cloudy
2:30 PM 94 °F - 75 °F 45% 29.68 in 2 mi SSW 3.5 mph - -   Scattered Clouds
3:10 PM 96.8 °F 112.2 °F 77.0 °F 53% 29.74 in 3.7 mi WSW 3.5 mph - N/A   Scattered Clouds
5:30 PM 86 °F - 80 °F 79% 29.72 in 2 mi Calm Calm - -   Haze
6:10 PM 87.8 °F 99.7 °F 77.0 °F 70% 29.80 in - North - - N/A   Haze
7:10 PM 87.8 °F 99.7 °F 77.0 °F 70% 29.80 in 2.5 mi NW 3.5 mph - N/A   Haze
8:30 PM 79 °F - 76 °F 88% 29.80 in 2 mi Calm Calm - -   Haze
9:10 PM 82.4 °F 92.4 °F 78.8 °F 89% 29.83 in 3.1 mi Calm Calm - N/A   Haze
10:10 PM 80.6 °F 85.4 °F 73.4 °F 79% 29.86 in 2.5 mi Calm Calm - N/A   Haze
11:10 PM 78.8 °F - 73.4 °F 83% 29.86 in 2.5 mi Calm Calm - N/A   Haze
11:30 PM 76 °F - 73 °F 87% 29.83 in 1 mi Calm Calm - -   Haze